Starlink 5117

operational
NORAD ID: 54172 Int'l Des: 2022-141 Owner: SPXS Country: US Constellation: starlink
LEOCIRCULAR

Über Starlink 5117

Beschreibung wird geladen...

Live-Position

3D-Globus wird geladen...

Nächste Überflüge

Höhenverlauf

Altitude vs Time

uPlot chart will show altitude changes over time

Zweizeiliger Elementsatz

1 54172U 22141R 25304.09528595 -.00000041 00000-0 15534-4 0 9994
2 54172 53.2176 225.8676 0001117 110.0485 250.0628 15.08853339166292
Epoch: 31. Okt. 2025 • Age: 8 hours

Aktueller Status

Höhe 543.9 km
Geschwindigkeit 7.60 km/s
Subsatellitenpunkt 45.14°N, 75.06°E
Startdatum 28. Okt. 2022
Alter 3 years
Typ internet

Technische Details

Klassifizierung Payload
Masse 305.00 kg
Trockenmasse 290.00 kg
Gesamtmasse 305.00 kg
Länge 0.20 m
Durchmesser 2.80 m
Spannweite 9.00 m
Form Box + pan
Hersteller SPXS
Bus-Typ Starlink
Phasenstatus In Orbit
Besitzer/Staat SPXS/US

Große Konstellationen

Loading constellations...